Time,TemperatureF,DewpointF,PressureIn,WindDirection,WindDirectionDegrees,WindSpeedMPH,WindSpeedGustMPH,Humidity,HourlyPrecipIn,Conditions,Clouds,dailyrainin,SoftwareType,DateUTC
2013-06-15 00:00:00,60.5,50.7,30.06,East,90,0.0,4.0,70,0.00,,---,0.00,VWS V14.00,2013-06-15 04:00:00,
2013-06-15 00:03:00,60.3,51.6,30.06,East,88,2.0,4.0,73,0.00,,---,0.00,VWS V14.00,2013-06-15 04:03:00,
2013-06-15 00:08:00,59.9,52.0,30.06,East,88,0.0,4.0,75,0.00,,---,0.00,VWS V14.00,2013-06-15 04:08:00,
2013-06-15 00:13:00,59.4,50.8,30.07,NNE,30,0.0,4.0,73,0.00,,---,0.00,VWS V14.00,2013-06-15 04:13:00,
2013-06-15 00:18:00,59.4,50.8,30.07,NNE,29,0.0,4.0,73,0.00,,---,0.00,VWS V14.00,2013-06-15 04:18:00,
2013-06-15 00:23:00,59.3,50.7,30.07,NNE,30,0.0,4.0,73,0.00,,---,0.00,VWS V14.00,2013-06-15 04:23:00,
2013-06-15 00:28:00,59.1,50.5,30.07,NNE,29,0.0,1.0,73,0.00,,---,0.00,VWS V14.00,2013-06-15 04:28:00,
2013-06-15 00:30:00,59.2,50.6,30.07,NNE,30,0.0,4.0,73,0.00,,---,0.00,VWS V14.00,2013-06-15 04:30:00,
2013-06-15 00:33:00,59.1,50.1,30.06,NNE,30,0.0,3.0,72,0.00,,---,0.00,VWS V14.00,2013-06-15 04:33:00,
2013-06-15 00:39:00,59.1,49.3,30.06,NNE,30,0.0,3.0,70,0.00,,---,0.00,VWS V14.00,2013-06-15 04:39:00,
2013-06-15 00:44:00,59.1,49.3,30.06,NNE,31,0.0,3.0,70,0.00,,---,0.00,VWS V14.00,2013-06-15 04:44:00,
2013-06-15 00:49:00,59.2,49.4,30.06,NE,35,0.0,3.0,70,0.00,,---,0.00,VWS V14.00,2013-06-15 04:49:00,
2013-06-15 00:54:00,59.2,49.4,30.06,ENE,62,0.0,3.0,70,0.00,,---,0.00,VWS V14.00,2013-06-15 04:54:00,
2013-06-15 00:59:00,59.2,49.4,30.06,ENE,71,0.0,2.0,70,0.00,,---,0.00,VWS V14.00,2013-06-15 04:59:00,
2013-06-15 01:00:00,59.2,49.4,30.06,ENE,70,0.0,3.0,70,0.00,,---,0.00,VWS V14.00,2013-06-15 05:00:00,
2013-06-15 01:04:00,59.3,49.5,30.05,NE,50,0.0,4.0,70,0.00,,---,0.00,VWS V14.00,2013-06-15 05:04:00,
2013-06-15 01:09:00,59.3,49.5,30.06,NE,51,0.0,4.0,70,0.00,,---,0.00,VWS V14.00,2013-06-15 05:09:00,
2013-06-15 01:14:00,59.4,49.6,30.06,NE,51,0.0,4.0,70,0.00,,---,0.00,VWS V14.00,2013-06-15 05:14:00,
2013-06-15 01:19:00,59.4,49.6,30.06,NE,51,0.0,4.0,70,0.00,,---,0.00,VWS V14.00,2013-06-15 05:19:00,
2013-06-15 01:24:00,59.2,49.0,30.05,NE,50,0.0,4.0,69,0.00,,---,0.00,VWS V14.00,2013-06-15 05:24:00,
2013-06-15 01:29:00,59.1,49.7,30.05,NE,50,0.0,0.0,71,0.00,,---,0.00,VWS V14.00,2013-06-15 05:29:00,
2013-06-15 01:30:00,59.2,49.4,30.05,NE,50,0.0,4.0,70,0.00,,---,0.00,VWS V14.00,2013-06-15 05:30:00,
2013-06-15 01:34:00,58.8,49.8,30.05,NE,50,0.0,0.0,72,0.00,,---,0.00,VWS V14.00,2013-06-15 05:34:00,
2013-06-15 01:39:00,58.5,49.5,30.05,NE,51,0.0,0.0,72,0.00,,---,0.00,VWS V14.00,2013-06-15 05:39:00,
2013-06-15 01:44:00,58.1,49.1,30.04,NE,51,0.0,0.0,72,0.00,,---,0.00,VWS V14.00,2013-06-15 05:44:00,
2013-06-15 01:49:00,57.8,49.2,30.04,NE,51,0.0,1.0,73,0.00,,---,0.00,VWS V14.00,2013-06-15 05:49:00,
2013-06-15 01:54:00,57.6,49.0,30.04,NE,50,0.0,1.0,73,0.00,,---,0.00,VWS V14.00,2013-06-15 05:54:00,
2013-06-15 01:59:00,57.3,49.1,30.04,NE,50,0.0,0.0,74,0.00,,---,0.00,VWS V14.00,2013-06-15 05:59:00,
2013-06-15 02:00:00,57.4,49.2,30.04,NE,50,0.0,1.0,74,0.00,,---,0.00,VWS V14.00,2013-06-15 06:00:00,
2013-06-15 02:04:00,56.9,49.4,30.04,NE,50,0.0,0.0,76,0.00,,---,0.00,VWS V14.00,2013-06-15 06:04:00,
2013-06-15 02:09:00,56.6,49.5,30.05,NE,50,0.0,0.0,77,0.00,,---,0.00,VWS V14.00,2013-06-15 06:09:00,
2013-06-15 02:14:00,56.3,49.2,30.04,NE,51,0.0,0.0,77,0.00,,---,0.00,VWS V14.00,2013-06-15 06:14:00,
2013-06-15 02:19:00,56.0,49.2,30.04,NE,51,0.0,0.0,78,0.00,,---,0.00,VWS V14.00,2013-06-15 06:19:00,
2013-06-15 02:24:00,55.8,49.0,30.04,NE,51,0.0,0.0,78,0.00,,---,0.00,VWS V14.00,2013-06-15 06:24:00,
2013-06-15 02:29:00,55.5,49.1,30.04,NE,50,0.0,0.0,79,0.00,,---,0.00,VWS V14.00,2013-06-15 06:29:00,
2013-06-15 02:30:00,55.6,49.2,30.04,NE,50,0.0,0.0,79,0.00,,---,0.00,VWS V14.00,2013-06-15 06:30:00,
2013-06-15 02:34:00,55.3,49.6,30.05,NE,50,0.0,0.0,81,0.00,,---,0.00,VWS V14.00,2013-06-15 06:34:00,
2013-06-15 02:39:00,55.2,49.8,30.05,NE,51,0.0,0.0,82,0.00,,---,0.00,VWS V14.00,2013-06-15 06:39:00,
2013-06-15 02:44:00,54.9,49.5,30.05,NE,50,0.0,0.0,82,0.00,,---,0.00,VWS V14.00,2013-06-15 06:44:00,
2013-06-15 02:49:00,54.7,49.3,30.05,NE,50,0.0,0.0,82,0.00,,---,0.00,VWS V14.00,2013-06-15 06:49:00,
2013-06-15 02:54:00,54.6,49.5,30.05,NE,50,0.0,0.0,83,0.00,,---,0.00,VWS V14.00,2013-06-15 06:54:00,
2013-06-15 02:59:00,54.5,49.8,30.06,NE,50,0.0,0.0,84,0.00,,---,0.00,VWS V14.00,2013-06-15 06:59:00,
2013-06-15 03:00:00,54.5,49.5,30.05,NE,50,0.0,0.0,83,0.00,,---,0.00,VWS V14.00,2013-06-15 07:00:00,
2013-06-15 03:04:00,54.4,49.7,30.06,NE,50,0.0,0.0,84,0.00,,---,0.00,VWS V14.00,2013-06-15 07:04:00,
2013-06-15 03:09:00,54.2,49.5,30.05,NE,50,0.0,0.0,84,0.00,,---,0.00,VWS V14.00,2013-06-15 07:09:00,
2013-06-15 03:14:00,54.1,49.4,30.05,NE,50,0.0,1.0,84,0.00,,---,0.00,VWS V14.00,2013-06-15 07:14:00,
2013-06-15 03:19:00,54.0,49.6,30.05,NE,50,0.0,1.0,85,0.00,,---,0.00,VWS V14.00,2013-06-15 07:19:00,
2013-06-15 03:24:00,53.7,49.3,30.06,NE,50,0.0,1.0,85,0.00,,---,0.00,VWS V14.00,2013-06-15 07:24:00,
2013-06-15 03:29:00,53.6,49.5,30.06,NE,50,0.0,0.0,86,0.00,,---,0.00,VWS V14.00,2013-06-15 07:29:00,
2013-06-15 03:30:00,53.6,49.2,30.06,NE,51,0.0,1.0,85,0.00,,---,0.00,VWS V14.00,2013-06-15 07:30:00,
2013-06-15 03:34:00,53.6,49.5,30.06,NE,50,0.0,1.0,86,0.00,,---,0.00,VWS V14.00,2013-06-15 07:34:00,
2013-06-15 03:39:00,53.5,49.4,30.06,NE,51,0.0,1.0,86,0.00,,---,0.00,VWS V14.00,2013-06-15 07:39:00,
2013-06-15 03:44:00,53.4,49.3,30.06,NE,51,0.0,1.0,86,0.00,,---,0.00,VWS V14.00,2013-06-15 07:44:00,
2013-06-15 03:49:00,53.2,49.1,30.06,NE,51,0.0,1.0,86,0.00,,---,0.00,VWS V14.00,2013-06-15 07:49:00,
2013-06-15 03:54:00,53.0,48.9,30.06,NE,50,0.0,1.0,86,0.00,,---,0.00,VWS V14.00,2013-06-15 07:54:00,
2013-06-15 03:59:00,52.9,49.1,30.06,NE,50,0.0,0.0,87,0.00,,---,0.00,VWS V14.00,2013-06-15 07:59:00,
2013-06-15 04:00:00,52.9,49.1,30.06,NE,51,0.0,1.0,87,0.00,,---,0.00,VWS V14.00,2013-06-15 08:00:00,
2013-06-15 04:04:00,52.9,49.5,30.05,NE,50,0.0,0.0,88,0.00,,---,0.00,VWS V14.00,2013-06-15 08:04:00,
2013-06-15 04:09:00,53.0,49.5,30.05,NE,50,0.0,0.0,88,0.00,,---,0.00,VWS V14.00,2013-06-15 08:09:00,
2013-06-15 04:14:00,53.0,49.5,30.06,NE,50,0.0,0.0,88,0.00,,---,0.00,VWS V14.00,2013-06-15 08:14:00,
2013-06-15 04:19:00,52.8,49.3,30.05,NE,51,0.0,0.0,88,0.00,,---,0.00,VWS V14.00,2013-06-15 08:19:00,
2013-06-15 04:24:00,52.7,49.2,30.05,NE,50,0.0,0.0,88,0.00,,---,0.00,VWS V14.00,2013-06-15 08:24:00,
2013-06-15 04:29:00,52.6,49.5,30.05,NE,50,0.0,0.0,89,0.00,,---,0.00,VWS V14.00,2013-06-15 08:29:00,
2013-06-15 04:30:00,52.6,49.5,30.05,NE,51,0.0,0.0,89,0.00,,---,0.00,VWS V14.00,2013-06-15 08:30:00,
2013-06-15 04:34:00,52.6,49.5,30.05,NE,51,0.0,0.0,89,0.00,,---,0.00,VWS V14.00,2013-06-15 08:34:00,
2013-06-15 04:39:00,52.6,49.5,30.05,NE,50,0.0,2.0,89,0.00,,---,0.00,VWS V14.00,2013-06-15 08:39:00,
2013-06-15 04:44:00,52.5,49.4,30.05,NE,51,0.0,2.0,89,0.00,,---,0.00,VWS V14.00,2013-06-15 08:44:00,
2013-06-15 04:49:00,52.6,49.8,30.06,NE,50,0.0,2.0,90,0.00,,---,0.00,VWS V14.00,2013-06-15 08:49:00,
2013-06-15 04:54:00,52.8,50.0,30.05,NE,50,0.0,2.0,90,0.00,,---,0.00,VWS V14.00,2013-06-15 08:54:00,
2013-06-15 04:59:00,52.7,49.8,30.05,NE,51,0.0,0.0,90,0.00,,---,0.00,VWS V14.00,2013-06-15 08:59:00,
2013-06-15 05:00:00,52.8,50.0,30.05,NE,50,0.0,2.0,90,0.00,,---,0.00,VWS V14.00,2013-06-15 09:00:00,
2013-06-15 05:04:00,52.7,50.2,30.04,NE,50,0.0,1.0,91,0.00,,---,0.00,VWS V14.00,2013-06-15 09:04:00,
2013-06-15 05:09:00,52.6,50.0,30.04,NE,50,0.0,1.0,91,0.00,,---,0.00,VWS V14.00,2013-06-15 09:09:00,
2013-06-15 05:14:00,52.4,49.8,30.05,NE,50,0.0,1.0,91,0.00,,---,0.00,VWS V14.00,2013-06-15 09:14:00,
2013-06-15 05:19:00,52.4,49.8,30.05,NE,51,0.0,1.0,91,0.00,,---,0.00,VWS V14.00,2013-06-15 09:19:00,
2013-06-15 05:24:00,52.5,50.2,30.05,NE,51,0.0,2.0,92,0.00,,---,0.00,VWS V14.00,2013-06-15 09:24:00,
2013-06-15 05:29:00,52.5,50.2,30.05,NE,50,0.0,0.0,92,0.00,,---,0.00,VWS V14.00,2013-06-15 09:29:00,
2013-06-15 05:30:00,52.5,50.2,30.05,NE,51,0.0,2.0,92,0.00,,---,0.00,VWS V14.00,2013-06-15 09:30:00,
2013-06-15 05:34:00,52.4,50.2,30.05,NE,50,0.0,0.0,92,0.00,,---,0.00,VWS V14.00,2013-06-15 09:34:00,
2013-06-15 05:39:00,52.3,50.0,30.05,NE,51,0.0,0.0,92,0.00,,---,0.00,VWS V14.00,2013-06-15 09:39:00,
2013-06-15 05:44:00,52.3,50.0,30.05,NE,50,0.0,3.0,92,0.00,,---,0.00,VWS V14.00,2013-06-15 09:44:00,
2013-06-15 05:49:00,52.4,50.4,30.06,NE,51,0.0,3.0,93,0.00,,---,0.00,VWS V14.00,2013-06-15 09:49:00,
2013-06-15 05:54:00,52.7,50.7,30.05,NE,49,1.0,3.0,93,0.00,,---,0.00,VWS V14.00,2013-06-15 09:54:00,
2013-06-15 05:59:00,53.0,51.0,30.06,NE,49,0.0,2.0,93,0.00,,---,0.00,VWS V14.00,2013-06-15 09:59:00,
2013-06-15 06:00:00,52.9,50.9,30.06,NE,49,2.0,3.0,93,0.00,,---,0.00,VWS V14.00,2013-06-15 10:00:00,
2013-06-15 06:04:00,53.2,51.2,30.06,NE,49,2.0,3.0,93,0.00,,---,0.00,VWS V14.00,2013-06-15 10:04:00,
2013-06-15 06:09:00,53.3,51.0,30.07,NE,49,0.0,3.0,92,0.00,,---,0.00,VWS V14.00,2013-06-15 10:09:00,
2013-06-15 06:14:00,53.5,51.2,30.07,NE,49,0.0,3.0,92,0.00,,---,0.00,VWS V14.00,2013-06-15 10:14:00,
2013-06-15 06:19:00,53.7,51.4,30.07,NNE,32,1.0,3.0,92,0.00,,---,0.00,VWS V14.00,2013-06-15 10:19:00,
2013-06-15 06:24:00,53.8,51.5,30.07,North,355,2.0,3.0,92,0.00,,---,0.00,VWS V14.00,2013-06-15 10:24:00,
2013-06-15 06:29:00,53.9,51.6,30.07,North,355,1.0,4.0,92,0.00,,---,0.00,VWS V14.00,2013-06-15 10:29:00,
2013-06-15 06:30:00,53.8,51.5,30.07,North,355,4.0,4.0,92,0.00,,---,0.00,VWS V14.00,2013-06-15 10:30:00,
2013-06-15 06:34:00,54.0,51.7,30.07,North,355,3.0,4.0,92,0.00,,---,0.00,VWS V14.00,2013-06-15 10:34:00,
2013-06-15 06:39:00,54.2,51.9,30.07,NNW,340,0.0,4.0,92,0.00,,---,0.00,VWS V14.00,2013-06-15 10:39:00,
2013-06-15 06:44:00,54.3,52.3,30.08,NNW,340,0.0,4.0,93,0.00,,---,0.00,VWS V14.00,2013-06-15 10:44:00,
2013-06-15 06:49:00,54.3,52.0,30.08,NNW,340,2.0,4.0,92,0.00,,---,0.00,VWS V14.00,2013-06-15 10:49:00,
2013-06-15 06:54:00,54.3,52.0,30.08,NNW,338,3.0,4.0,92,0.00,,---,0.00,VWS V14.00,2013-06-15 10:54:00,
2013-06-15 06:59:00,54.3,52.0,30.08,NNW,338,1.0,3.0,92,0.00,,---,0.00,VWS V14.00,2013-06-15 10:59:00,
2013-06-15 07:00:00,54.3,52.0,30.08,NNW,338,1.0,4.0,92,0.00,,---,0.00,VWS V14.00,2013-06-15 11:00:00,
2013-06-15 07:04:00,54.4,52.1,30.08,NNW,338,1.0,3.0,92,0.00,,---,0.00,VWS V14.00,2013-06-15 11:04:00,
2013-06-15 07:09:00,54.5,51.9,30.08,NNW,338,0.0,3.0,91,0.00,,---,0.00,VWS V14.00,2013-06-15 11:09:00,
2013-06-15 07:14:00,54.7,52.1,30.08,NNW,338,0.0,3.0,91,0.00,,---,0.00,VWS V14.00,2013-06-15 11:14:00,
2013-06-15 07:19:00,54.8,52.2,30.08,NNW,338,0.0,3.0,91,0.00,,---,0.00,VWS V14.00,2013-06-15 11:19:00,
2013-06-15 07:24:00,55.0,52.1,30.09,NNW,338,1.0,3.0,90,0.00,,---,0.00,VWS V14.00,2013-06-15 11:24:00,
2013-06-15 07:29:00,55.1,52.2,30.08,NNW,338,0.0,3.0,90,0.00,,---,0.00,VWS V14.00,2013-06-15 11:29:00,
2013-06-15 07:30:00,55.1,52.2,30.08,NNW,339,2.0,3.0,90,0.00,,---,0.00,VWS V14.00,2013-06-15 11:30:00,
2013-06-15 07:34:00,55.4,52.2,30.08,NW,311,0.0,5.0,89,0.00,,---,0.00,VWS V14.00,2013-06-15 11:34:00,
2013-06-15 07:39:00,55.6,52.4,30.08,NW,310,1.0,5.0,89,0.00,,---,0.00,VWS V14.00,2013-06-15 11:39:00,
2013-06-15 07:44:00,55.9,52.7,30.09,NW,309,1.0,5.0,89,0.00,,---,0.00,VWS V14.00,2013-06-15 11:44:00,
2013-06-15 07:49:00,56.2,53.0,30.09,NW,304,0.0,5.0,89,0.00,,---,0.00,VWS V14.00,2013-06-15 11:49:00,
2013-06-15 07:54:00,56.3,52.8,30.09,WNW,287,1.0,5.0,88,0.00,,---,0.00,VWS V14.00,2013-06-15 11:54:00,
2013-06-15 08:00:00,56.6,53.1,30.08,WSW,243,0.0,2.0,88,0.00,,---,0.00,VWS V14.00,2013-06-15 12:00:00,
2013-06-15 08:05:00,56.8,53.3,30.09,SW,231,4.0,4.0,88,0.00,,---,0.00,VWS V14.00,2013-06-15 12:05:00,
2013-06-15 08:10:00,57.0,53.5,30.09,SW,219,3.0,7.0,88,0.00,,---,0.00,VWS V14.00,2013-06-15 12:10:00,
2013-06-15 08:15:00,57.2,53.7,30.09,SSW,212,1.0,7.0,88,0.00,,---,0.00,VWS V14.00,2013-06-15 12:15:00,
2013-06-15 08:20:00,57.2,53.7,30.09,SSW,206,5.0,7.0,88,0.00,,---,0.00,VWS V14.00,2013-06-15 12:20:00,
2013-06-15 08:25:00,57.4,53.6,30.09,SSW,209,0.0,7.0,87,0.00,,---,0.00,VWS V14.00,2013-06-15 12:25:00,
2013-06-15 08:30:00,57.6,53.8,30.08,SSW,192,2.0,5.0,87,0.00,,---,0.00,VWS V14.00,2013-06-15 12:30:00,
2013-06-15 08:35:00,57.8,53.7,30.08,South,191,0.0,5.0,86,0.00,,---,0.00,VWS V14.00,2013-06-15 12:35:00,
2013-06-15 08:40:00,58.1,53.6,30.08,SW,217,5.0,6.0,85,0.00,,---,0.00,VWS V14.00,2013-06-15 12:40:00,
2013-06-15 08:45:00,58.4,53.6,30.08,SSW,210,0.0,6.0,84,0.00,,---,0.00,VWS V14.00,2013-06-15 12:45:00,
2013-06-15 08:50:00,58.7,54.2,30.08,SSW,210,0.0,6.0,85,0.00,,---,0.00,VWS V14.00,2013-06-15 12:50:00,
2013-06-15 08:55:00,59.3,54.5,30.08,SSW,210,0.0,6.0,84,0.00,,---,0.00,VWS V14.00,2013-06-15 12:55:00,
2013-06-15 09:00:00,59.7,54.2,30.08,SSW,210,0.0,3.0,82,0.00,,---,0.00,VWS V14.00,2013-06-15 13:00:00,
2013-06-15 09:05:00,60.0,54.2,30.08,SSW,209,3.0,4.0,81,0.00,,---,0.00,VWS V14.00,2013-06-15 13:05:00,
2013-06-15 09:10:00,60.2,54.4,30.08,SSW,209,1.0,4.0,81,0.00,,---,0.00,VWS V14.00,2013-06-15 13:10:00,
2013-06-15 09:15:00,60.6,54.4,30.08,SSW,210,0.0,4.0,80,0.00,,---,0.00,VWS V14.00,2013-06-15 13:15:00,
2013-06-15 09:20:00,61.1,54.5,30.08,SSW,210,0.0,4.0,79,0.00,,---,0.00,VWS V14.00,2013-06-15 13:20:00,
2013-06-15 09:25:00,61.6,54.7,30.08,SSW,210,0.0,4.0,78,0.00,,---,0.00,VWS V14.00,2013-06-15 13:25:00,
2013-06-15 09:30:00,62.1,55.2,30.08,SSW,210,0.0,2.0,78,0.00,,---,0.00,VWS V14.00,2013-06-15 13:30:00,
2013-06-15 09:35:00,62.3,55.0,30.08,SSW,210,2.0,3.0,77,0.00,,---,0.00,VWS V14.00,2013-06-15 13:35:00,
2013-06-15 09:40:00,62.5,55.2,30.08,SSW,209,0.0,3.0,77,0.00,,---,0.00,VWS V14.00,2013-06-15 13:40:00,
2013-06-15 09:45:00,62.9,55.2,30.08,SSW,210,0.0,3.0,76,0.00,,---,0.00,VWS V14.00,2013-06-15 13:45:00,
2013-06-15 09:50:00,63.3,55.2,30.08,SSW,209,1.0,3.0,75,0.00,,---,0.00,VWS V14.00,2013-06-15 13:50:00,
2013-06-15 09:55:00,63.5,55.4,30.08,SSW,210,0.0,3.0,75,0.00,,---,0.00,VWS V14.00,2013-06-15 13:55:00,
2013-06-15 10:00:00,64.2,55.8,30.08,SSW,209,0.0,0.0,74,0.00,,---,0.00,VWS V14.00,2013-06-15 14:00:00,
2013-06-15 10:05:00,65.1,55.9,30.08,SSW,209,0.0,1.0,72,0.00,,---,0.00,VWS V14.00,2013-06-15 14:05:00,
2013-06-15 10:10:00,66.0,56.3,30.08,SSW,209,0.0,1.0,71,0.00,,---,0.00,VWS V14.00,2013-06-15 14:10:00,
2013-06-15 10:15:00,66.9,56.4,30.07,SSW,210,0.0,2.0,69,0.00,,---,0.00,VWS V14.00,2013-06-15 14:15:00,
2013-06-15 10:20:00,67.7,56.8,30.07,SSW,209,1.0,2.0,68,0.00,,---,0.00,VWS V14.00,2013-06-15 14:20:00,
2013-06-15 10:25:00,68.3,56.1,30.07,SSW,209,0.0,2.0,65,0.00,,---,0.00,VWS V14.00,2013-06-15 14:25:00,
2013-06-15 10:30:00,68.9,56.2,30.06,SSW,209,0.0,1.0,64,0.00,,---,0.00,VWS V14.00,2013-06-15 14:30:00,
2013-06-15 10:35:00,69.1,56.4,30.06,SSW,209,0.0,1.0,64,0.00,,---,0.00,VWS V14.00,2013-06-15 14:35:00,
2013-06-15 10:40:00,69.9,56.3,30.06,East,84,1.0,4.0,62,0.00,,---,0.00,VWS V14.00,2013-06-15 14:40:00,
2013-06-15 10:45:00,70.8,56.2,30.06,East,84,0.0,4.0,60,0.00,,---,0.00,VWS V14.00,2013-06-15 14:45:00,
2013-06-15 10:50:00,71.1,55.6,30.05,ESE,123,1.0,4.0,58,0.00,,---,0.00,VWS V14.00,2013-06-15 14:50:00,
2013-06-15 10:55:00,71.0,55.0,30.05,SE,129,1.0,6.0,57,0.00,,---,0.00,VWS V14.00,2013-06-15 14:55:00,
2013-06-15 11:00:00,71.2,54.7,30.05,SE,130,2.0,4.0,56,0.00,,---,0.00,VWS V14.00,2013-06-15 15:00:00,
2013-06-15 11:05:00,71.0,55.0,30.05,SW,216,0.0,5.0,57,0.00,,---,0.00,VWS V14.00,2013-06-15 15:05:00,
2013-06-15 11:10:00,71.3,54.8,30.05,SW,215,0.0,5.0,56,0.00,,---,0.00,VWS V14.00,2013-06-15 15:10:00,
2013-06-15 11:15:00,71.5,54.5,30.04,SW,216,2.0,5.0,55,0.00,,---,0.00,VWS V14.00,2013-06-15 15:15:00,
2013-06-15 11:20:00,71.5,54.5,30.04,SW,216,2.0,5.0,55,0.00,,---,0.00,VWS V14.00,2013-06-15 15:20:00,
2013-06-15 11:25:00,72.1,54.0,30.04,SW,216,0.0,5.0,53,0.00,,---,0.00,VWS V14.00,2013-06-15 15:25:00,
2013-06-15 11:30:00,72.2,53.1,30.03,SW,216,2.0,5.0,51,0.00,,---,0.00,VWS V14.00,2013-06-15 15:30:00,
2013-06-15 11:35:00,72.4,52.7,30.03,SSW,196,1.0,5.0,50,0.00,,---,0.00,VWS V14.00,2013-06-15 15:35:00,
2013-06-15 11:40:00,73.0,52.7,30.03,SSW,196,1.0,5.0,49,0.00,,---,0.00,VWS V14.00,2013-06-15 15:40:00,
2013-06-15 11:45:00,73.4,55.2,30.03,South,170,1.0,5.0,53,0.00,,---,0.00,VWS V14.00,2013-06-15 15:45:00,
2013-06-15 11:50:00,74.2,54.9,30.03,South,170,2.0,5.0,51,0.00,,---,0.00,VWS V14.00,2013-06-15 15:50:00,
2013-06-15 11:55:00,74.9,53.9,30.03,South,171,0.0,5.0,48,0.00,,---,0.00,VWS V14.00,2013-06-15 15:55:00,
2013-06-15 12:00:00,75.5,54.5,30.02,SSE,150,7.0,7.0,48,0.00,,---,0.00,VWS V14.00,2013-06-15 16:00:00,
2013-06-15 12:05:00,75.3,53.1,30.02,ESE,123,2.0,7.0,46,0.00,,---,0.00,VWS V14.00,2013-06-15 16:05:00,
2013-06-15 12:10:00,75.8,53.6,30.02,SE,126,6.0,7.0,46,0.00,,---,0.00,VWS V14.00,2013-06-15 16:10:00,
2013-06-15 12:15:00,76.1,53.8,30.02,South,169,4.0,8.0,46,0.00,,---,0.00,VWS V14.00,2013-06-15 16:15:00,
2013-06-15 12:20:00,76.0,53.2,30.02,South,184,2.0,8.0,45,0.00,,---,0.00,VWS V14.00,2013-06-15 16:20:00,
2013-06-15 12:25:00,75.9,53.1,30.02,SW,222,1.0,8.0,45,0.00,,---,0.00,VWS V14.00,2013-06-15 16:25:00,
2013-06-15 12:30:00,75.7,52.3,30.02,SSW,203,4.0,8.0,44,0.00,,---,0.00,VWS V14.00,2013-06-15 16:30:00,
2013-06-15 12:35:00,75.5,53.3,30.02,West,267,2.0,8.0,46,0.00,,---,0.00,VWS V14.00,2013-06-15 16:35:00,
2013-06-15 12:40:00,75.9,53.7,30.02,South,180,3.0,8.0,46,0.00,,---,0.00,VWS V14.00,2013-06-15 16:40:00,
2013-06-15 12:45:00,76.2,53.3,30.01,SSW,207,4.0,8.0,45,0.00,,---,0.00,VWS V14.00,2013-06-15 16:45:00,
2013-06-15 12:50:00,76.1,53.8,30.02,SW,219,6.0,10.0,46,0.00,,---,0.00,VWS V14.00,2013-06-15 16:50:00,
2013-06-15 12:55:00,75.6,54.0,30.02,SW,219,2.0,10.0,47,0.00,,---,0.00,VWS V14.00,2013-06-15 16:55:00,
2013-06-15 13:00:00,75.9,55.4,30.02,SW,231,4.0,8.0,49,0.00,,---,0.00,VWS V14.00,2013-06-15 17:00:00,
2013-06-15 13:05:00,75.7,55.2,30.02,WSW,253,5.0,8.0,49,0.00,,---,0.00,VWS V14.00,2013-06-15 17:05:00,
2013-06-15 13:10:00,76.0,56.0,30.02,SSW,194,5.0,8.0,50,0.00,,---,0.00,VWS V14.00,2013-06-15 17:10:00,
2013-06-15 13:15:00,76.2,56.2,30.01,SSW,192,2.0,8.0,50,0.00,,---,0.00,VWS V14.00,2013-06-15 17:15:00,
2013-06-15 13:20:00,76.6,56.6,30.01,West,262,3.0,11.0,50,0.00,,---,0.00,VWS V14.00,2013-06-15 17:20:00,
2013-06-15 13:25:00,77.0,57.5,30.01,West,259,6.0,11.0,51,0.00,,---,0.00,VWS V14.00,2013-06-15 17:25:00,
2013-06-15 13:30:00,77.2,56.6,30.01,SW,217,8.0,10.0,49,0.00,,---,0.00,VWS V14.00,2013-06-15 17:30:00,
2013-06-15 13:35:00,77.1,55.9,30.01,SSW,206,4.0,10.0,48,0.00,,---,0.00,VWS V14.00,2013-06-15 17:35:00,
2013-06-15 13:40:00,77.2,57.1,30.01,West,265,5.0,11.0,50,0.00,,---,0.00,VWS V14.00,2013-06-15 17:40:00,
2013-06-15 13:45:00,77.5,55.7,30.01,SW,218,6.0,11.0,47,0.00,,---,0.00,VWS V14.00,2013-06-15 17:45:00,
2013-06-15 13:50:00,77.6,57.5,30.01,SW,221,4.0,11.0,50,0.00,,---,0.00,VWS V14.00,2013-06-15 17:50:00,
2013-06-15 13:55:00,77.8,56.0,30.01,WSW,257,4.0,11.0,47,0.00,,---,0.00,VWS V14.00,2013-06-15 17:55:00,
2013-06-15 14:00:00,78.1,56.2,30.01,West,264,11.0,13.0,47,0.00,,---,0.00,VWS V14.00,2013-06-15 18:00:00,
2013-06-15 14:05:00,77.8,57.1,30.01,WSW,238,7.0,13.0,49,0.00,,---,0.00,VWS V14.00,2013-06-15 18:05:00,
2013-06-15 14:10:00,77.5,57.4,30.01,West,263,5.0,13.0,50,0.00,,---,0.00,VWS V14.00,2013-06-15 18:10:00,
2013-06-15 14:15:00,77.1,57.0,30.01,WSW,248,7.0,13.0,50,0.00,,---,0.00,VWS V14.00,2013-06-15 18:15:00,
2013-06-15 14:20:00,76.9,56.9,30.01,WSW,252,4.0,13.0,50,0.00,,---,0.00,VWS V14.00,2013-06-15 18:20:00,
2013-06-15 14:25:00,77.1,57.0,30.01,WSW,251,2.0,13.0,50,0.00,,---,0.00,VWS V14.00,2013-06-15 18:25:00,
2013-06-15 14:30:00,77.0,57.0,30.01,SW,216,6.0,10.0,50,0.00,,---,0.00,VWS V14.00,2013-06-15 18:30:00,
2013-06-15 14:35:00,77.0,57.0,30.01,West,261,6.0,10.0,50,0.00,,---,0.00,VWS V14.00,2013-06-15 18:35:00,
2013-06-15 14:40:00,76.9,57.4,30.00,SSW,210,3.0,10.0,51,0.00,,---,0.00,VWS V14.00,2013-06-15 18:40:00,
2013-06-15 14:45:00,76.9,58.5,30.00,WNW,294,3.0,11.0,53,0.00,,---,0.00,VWS V14.00,2013-06-15 18:45:00,
2013-06-15 14:51:00,77.0,60.1,30.00,SSW,205,5.0,11.0,56,0.00,,---,0.00,VWS V14.00,2013-06-15 18:51:00,
2013-06-15 14:56:00,77.0,60.1,30.00,WSW,243,3.0,11.0,56,0.00,,---,0.00,VWS V14.00,2013-06-15 18:56:00,
2013-06-15 15:00:00,77.1,59.7,30.00,West,259,5.0,11.0,55,0.00,,---,0.00,VWS V14.00,2013-06-15 19:00:00,
2013-06-15 15:01:00,77.0,59.6,30.00,WSW,239,13.0,13.0,55,0.00,,---,0.00,VWS V14.00,2013-06-15 19:01:00,
2013-06-15 15:06:00,77.0,59.6,30.00,SW,234,5.0,13.0,55,0.00,,---,0.00,VWS V14.00,2013-06-15 19:06:00,
2013-06-15 15:11:00,76.9,60.5,30.00,SSW,206,10.0,13.0,57,0.00,,---,0.00,VWS V14.00,2013-06-15 19:11:00,
2013-06-15 15:16:00,76.8,61.4,30.00,WSW,249,7.0,13.0,59,0.00,,---,0.00,VWS V14.00,2013-06-15 19:16:00,
2013-06-15 15:21:00,76.8,61.4,30.00,SW,216,6.0,13.0,59,0.00,,---,0.00,VWS V14.00,2013-06-15 19:21:00,
2013-06-15 15:26:00,76.4,61.0,29.99,West,259,10.0,13.0,59,0.00,,---,0.00,VWS V14.00,2013-06-15 19:26:00,
2013-06-15 15:30:00,76.4,61.0,29.99,WSW,246,5.0,13.0,59,0.00,,---,0.00,VWS V14.00,2013-06-15 19:30:00,
2013-06-15 15:31:00,76.4,61.0,29.99,WSW,248,7.0,12.0,59,0.00,,---,0.00,VWS V14.00,2013-06-15 19:31:00,
2013-06-15 15:36:00,76.5,60.6,29.99,SW,229,8.0,12.0,58,0.00,,---,0.00,VWS V14.00,2013-06-15 19:36:00,
2013-06-15 15:41:00,76.6,60.7,29.99,SW,216,9.0,14.0,58,0.00,,---,0.00,VWS V14.00,2013-06-15 19:41:00,
2013-06-15 15:46:00,76.4,60.5,29.99,SSW,209,6.0,15.0,58,0.00,,---,0.00,VWS V14.00,2013-06-15 19:46:00,
2013-06-15 15:51:00,76.1,60.8,29.99,SSW,211,9.0,15.0,59,0.00,,---,0.00,VWS V14.00,2013-06-15 19:51:00,
2013-06-15 15:56:00,75.9,60.6,29.99,SSW,211,7.0,15.0,59,0.00,,---,0.00,VWS V14.00,2013-06-15 19:56:00,
2013-06-15 16:00:00,75.8,60.5,29.99,SSW,213,4.0,15.0,59,0.00,,---,0.00,VWS V14.00,2013-06-15 20:00:00,
2013-06-15 16:01:00,76.0,60.7,29.99,SSW,209,5.0,8.0,59,0.00,,---,0.00,VWS V14.00,2013-06-15 20:01:00,
2013-06-15 16:06:00,76.0,61.1,30.00,SSW,209,9.0,10.0,60,0.00,,---,0.00,VWS V14.00,2013-06-15 20:06:00,
2013-06-15 16:11:00,76.0,61.1,29.99,SSW,207,8.0,13.0,60,0.00,,---,0.00,VWS V14.00,2013-06-15 20:11:00,
2013-06-15 16:16:00,76.1,61.2,29.99,WSW,238,5.0,13.0,60,0.00,,---,0.00,VWS V14.00,2013-06-15 20:16:00,
2013-06-15 16:21:00,76.0,61.1,29.99,SSW,205,10.0,13.0,60,0.00,,---,0.00,VWS V14.00,2013-06-15 20:21:00,
2013-06-15 16:26:00,75.8,60.5,29.99,SW,218,3.0,13.0,59,0.00,,---,0.00,VWS V14.00,2013-06-15 20:26:00,
2013-06-15 16:30:00,75.8,60.5,29.99,SW,234,10.0,13.0,59,0.00,,---,0.00,VWS V14.00,2013-06-15 20:30:00,
2013-06-15 16:31:00,75.7,60.8,29.99,SSW,212,6.0,15.0,60,0.00,,---,0.00,VWS V14.00,2013-06-15 20:31:00,
2013-06-15 16:36:00,75.8,60.9,29.99,SW,217,7.0,15.0,60,0.00,,---,0.00,VWS V14.00,2013-06-15 20:36:00,
2013-06-15 16:41:00,75.9,61.0,29.98,SW,228,4.0,15.0,60,0.00,,---,0.00,VWS V14.00,2013-06-15 20:41:00,
2013-06-15 16:46:00,75.9,61.5,29.98,SW,229,7.0,15.0,61,0.00,,---,0.00,VWS V14.00,2013-06-15 20:46:00,
2013-06-15 16:51:00,76.0,61.6,29.98,SW,227,9.0,15.0,61,0.00,,---,0.00,VWS V14.00,2013-06-15 20:51:00,
2013-06-15 16:56:00,76.1,61.2,29.98,SSW,201,8.0,15.0,60,0.00,,---,0.00,VWS V14.00,2013-06-15 20:56:00,
2013-06-15 17:00:00,76.0,61.1,29.98,SSW,209,4.0,15.0,60,0.00,,---,0.00,VWS V14.00,2013-06-15 21:00:00,
2013-06-15 17:01:00,75.9,61.0,29.98,South,175,7.0,10.0,60,0.00,,---,0.00,VWS V14.00,2013-06-15 21:01:00,
2013-06-15 17:06:00,75.9,61.5,29.98,SW,227,8.0,10.0,61,0.00,,---,0.00,VWS V14.00,2013-06-15 21:06:00,
2013-06-15 17:11:00,75.8,61.4,29.98,SW,223,5.0,10.0,61,0.00,,---,0.00,VWS V14.00,2013-06-15 21:11:00,
2013-06-15 17:16:00,75.8,60.9,29.97,SSW,196,6.0,10.0,60,0.00,,---,0.00,VWS V14.00,2013-06-15 21:16:00,
2013-06-15 17:21:00,75.9,61.5,29.97,West,260,9.0,10.0,61,0.00,,---,0.00,VWS V14.00,2013-06-15 21:21:00,
2013-06-15 17:26:00,76.0,61.6,29.97,SW,221,5.0,10.0,61,0.00,,---,0.00,VWS V14.00,2013-06-15 21:26:00,
2013-06-15 17:30:00,76.0,61.6,29.97,SW,219,7.0,10.0,61,0.00,,---,0.00,VWS V14.00,2013-06-15 21:30:00,
2013-06-15 17:31:00,76.0,61.6,29.97,SW,225,9.0,11.0,61,0.00,,---,0.00,VWS V14.00,2013-06-15 21:31:00,
2013-06-15 17:36:00,75.8,61.4,29.96,WSW,248,2.0,15.0,61,0.00,,---,0.00,VWS V14.00,2013-06-15 21:36:00,
2013-06-15 17:41:00,76.0,60.7,29.96,SSW,207,8.0,15.0,59,0.00,,---,0.00,VWS V14.00,2013-06-15 21:41:00,
2013-06-15 17:46:00,76.1,61.2,29.96,SSW,208,7.0,15.0,60,0.00,,---,0.00,VWS V14.00,2013-06-15 21:46:00,
2013-06-15 17:51:00,76.0,61.1,29.96,WSW,241,7.0,15.0,60,0.00,,---,0.00,VWS V14.00,2013-06-15 21:51:00,
2013-06-15 17:56:00,75.9,61.0,29.96,West,274,5.0,15.0,60,0.00,,---,0.00,VWS V14.00,2013-06-15 21:56:00,
2013-06-15 18:00:00,75.9,61.0,29.96,SW,216,7.0,15.0,60,0.00,,---,0.00,VWS V14.00,2013-06-15 22:00:00,
2013-06-15 18:01:00,75.7,60.8,29.96,SW,235,7.0,11.0,60,0.00,,---,0.00,VWS V14.00,2013-06-15 22:01:00,
2013-06-15 18:06:00,75.7,61.3,29.96,SSW,213,5.0,11.0,61,0.00,,---,0.00,VWS V14.00,2013-06-15 22:06:00,
2013-06-15 18:11:00,75.6,61.2,29.96,SW,221,9.0,12.0,61,0.00,,---,0.00,VWS V14.00,2013-06-15 22:11:00,
2013-06-15 18:16:00,75.5,61.1,29.96,SSW,201,8.0,12.0,61,0.00,,---,0.00,VWS V14.00,2013-06-15 22:16:00,
2013-06-15 18:21:00,75.6,61.2,29.95,SW,223,2.0,12.0,61,0.00,,---,0.00,VWS V14.00,2013-06-15 22:21:00,
2013-06-15 18:26:00,75.6,61.2,29.95,SW,223,10.0,12.0,61,0.00,,---,0.00,VWS V14.00,2013-06-15 22:26:00,
2013-06-15 18:30:00,75.6,61.2,29.95,WSW,241,8.0,12.0,61,0.00,,---,0.00,VWS V14.00,2013-06-15 22:30:00,
2013-06-15 18:31:00,75.8,61.4,29.95,SW,223,4.0,10.0,61,0.00,,---,0.00,VWS V14.00,2013-06-15 22:31:00,
2013-06-15 18:36:00,76.0,61.6,29.95,WSW,239,8.0,11.0,61,0.00,,---,0.00,VWS V14.00,2013-06-15 22:36:00,
2013-06-15 18:41:00,76.1,60.8,29.95,WNW,284,7.0,14.0,59,0.00,,---,0.00,VWS V14.00,2013-06-15 22:41:00,
2013-06-15 18:46:00,76.0,60.7,29.95,WSW,248,10.0,14.0,59,0.00,,---,0.00,VWS V14.00,2013-06-15 22:46:00,
2013-06-15 18:51:00,75.9,61.5,29.95,West,266,10.0,14.0,61,0.00,,---,0.00,VWS V14.00,2013-06-15 22:51:00,
2013-06-15 18:56:00,75.5,61.1,29.96,SW,225,9.0,15.0,61,0.00,,---,0.00,VWS V14.00,2013-06-15 22:56:00,
2013-06-15 19:00:00,75.5,61.1,29.96,West,261,6.0,15.0,61,0.00,,---,0.00,VWS V14.00,2013-06-15 23:00:00,
2013-06-15 19:01:00,75.3,60.9,29.96,West,266,8.0,16.0,61,0.00,,---,0.00,VWS V14.00,2013-06-15 23:01:00,
2013-06-15 19:06:00,75.2,61.3,29.95,SW,228,4.0,16.0,62,0.00,,---,0.00,VWS V14.00,2013-06-15 23:06:00,
2013-06-15 19:11:00,75.1,61.7,29.95,WSW,251,10.0,16.0,63,0.00,,---,0.00,VWS V14.00,2013-06-15 23:11:00,
2013-06-15 19:16:00,74.9,61.5,29.95,WSW,248,10.0,16.0,63,0.00,,---,0.00,VWS V14.00,2013-06-15 23:16:00,
2013-06-15 19:21:00,74.9,61.9,29.95,SW,217,7.0,16.0,64,0.00,,---,0.00,VWS V14.00,2013-06-15 23:21:00,
2013-06-15 19:26:00,74.8,61.8,29.94,SSW,211,4.0,16.0,64,0.00,,---,0.00,VWS V14.00,2013-06-15 23:26:00,
2013-06-15 19:30:00,74.8,61.8,29.94,WSW,251,9.0,16.0,64,0.00,,---,0.00,VWS V14.00,2013-06-15 23:30:00,
2013-06-15 19:31:00,74.7,61.7,29.94,WSW,254,5.0,10.0,64,0.00,,---,0.00,VWS V14.00,2013-06-15 23:31:00,
2013-06-15 19:36:00,74.6,62.1,29.95,WSW,248,5.0,14.0,65,0.00,,---,0.00,VWS V14.00,2013-06-15 23:36:00,
2013-06-15 19:41:00,74.3,60.9,29.95,WSW,237,3.0,14.0,63,0.00,,---,0.00,VWS V14.00,2013-06-15 23:41:00,
2013-06-15 19:46:00,74.1,60.7,29.95,West,260,6.0,14.0,63,0.00,,---,0.00,VWS V14.00,2013-06-15 23:46:00,
2013-06-15 19:51:00,74.0,60.6,29.94,SW,217,7.0,14.0,63,0.00,,---,0.00,VWS V14.00,2013-06-15 23:51:00,
2013-06-15 19:56:00,74.0,61.1,29.94,SSW,195,4.0,14.0,64,0.00,,---,0.00,VWS V14.00,2013-06-15 23:56:00,
2013-06-15 20:00:00,74.0,61.1,29.94,SSW,205,5.0,14.0,64,0.00,,---,0.00,VWS V14.00,2013-06-16 00:00:00,
2013-06-15 20:01:00,74.3,60.9,29.94,SSW,202,6.0,12.0,63,0.00,,---,0.00,VWS V14.00,2013-06-16 00:01:00,
2013-06-15 20:06:00,74.5,61.1,29.94,SSW,196,4.0,12.0,63,0.00,,---,0.00,VWS V14.00,2013-06-16 00:06:00,
2013-06-15 20:11:00,74.5,61.1,29.93,SW,216,11.0,12.0,63,0.00,,---,0.00,VWS V14.00,2013-06-16 00:11:00,
2013-06-15 20:16:00,74.2,60.8,29.92,SW,221,9.0,12.0,63,0.00,,---,0.00,VWS V14.00,2013-06-16 00:16:00,
2013-06-15 20:21:00,73.8,60.9,29.92,SW,235,5.0,12.0,64,0.00,,---,0.00,VWS V14.00,2013-06-16 00:21:00,
2013-06-15 20:26:00,73.5,60.6,29.92,SW,217,8.0,12.0,64,0.00,,---,0.00,VWS V14.00,2013-06-16 00:26:00,
2013-06-15 20:30:00,73.5,60.6,29.92,SW,214,5.0,12.0,64,0.00,,---,0.00,VWS V14.00,2013-06-16 00:30:00,
2013-06-15 20:31:00,73.3,60.4,29.93,SW,233,4.0,11.0,64,0.00,,---,0.00,VWS V14.00,2013-06-16 00:31:00,
2013-06-15 20:36:00,73.1,60.7,29.93,SW,223,3.0,11.0,65,0.00,,---,0.00,VWS V14.00,2013-06-16 00:36:00,
2013-06-15 20:41:00,73.0,61.0,29.92,SSW,206,7.0,11.0,66,0.00,,---,0.00,VWS V14.00,2013-06-16 00:41:00,
2013-06-15 20:46:00,72.8,61.2,29.92,SW,217,4.0,11.0,67,0.00,,---,0.00,VWS V14.00,2013-06-16 00:46:00,
2013-06-15 20:51:00,72.5,61.3,29.93,SSW,210,4.0,11.0,68,0.00,,---,0.00,VWS V14.00,2013-06-16 00:51:00,
2013-06-15 20:56:00,72.3,61.2,29.92,SSW,212,6.0,11.0,68,0.00,,---,0.00,VWS V14.00,2013-06-16 00:56:00,
2013-06-15 21:00:00,72.4,61.2,29.92,WSW,254,4.0,11.0,68,0.00,,---,0.00,VWS V14.00,2013-06-16 01:00:00,
2013-06-15 21:01:00,72.2,61.5,29.93,SW,221,4.0,9.0,69,0.00,,---,0.00,VWS V14.00,2013-06-16 01:01:00,
2013-06-15 21:06:00,72.0,61.3,29.93,SSW,205,4.0,9.0,69,0.00,,---,0.00,VWS V14.00,2013-06-16 01:06:00,
2013-06-15 21:12:00,71.7,61.4,29.92,SSW,199,1.0,9.0,70,0.00,,---,0.00,VWS V14.00,2013-06-16 01:12:00,
2013-06-15 21:17:00,71.4,61.5,29.92,SSW,204,2.0,9.0,71,0.00,,---,0.00,VWS V14.00,2013-06-16 01:17:00,
2013-06-15 21:22:00,71.1,61.2,29.92,SSW,202,1.0,9.0,71,0.00,,---,0.00,VWS V14.00,2013-06-16 01:22:00,
2013-06-15 21:27:00,70.8,60.9,29.91,SSW,199,0.0,9.0,71,0.00,,---,0.00,VWS V14.00,2013-06-16 01:27:00,
2013-06-15 21:30:00,70.8,60.9,29.91,SSW,199,0.0,9.0,71,0.00,,---,0.00,VWS V14.00,2013-06-16 01:30:00,
2013-06-15 21:32:00,70.5,61.0,29.91,ESE,121,0.0,6.0,72,0.00,,---,0.00,VWS V14.00,2013-06-16 01:32:00,
2013-06-15 21:37:00,70.3,60.9,29.91,SSW,194,1.0,6.0,72,0.00,,---,0.00,VWS V14.00,2013-06-16 01:37:00,
2013-06-15 21:42:00,70.1,61.0,29.92,SSW,197,0.0,6.0,73,0.00,,---,0.00,VWS V14.00,2013-06-16 01:42:00,
2013-06-15 21:47:00,69.9,60.9,29.91,SSW,196,1.0,6.0,73,0.00,,---,0.00,VWS V14.00,2013-06-16 01:47:00,
2013-06-15 21:52:00,69.6,61.0,29.91,SSE,161,1.0,6.0,74,0.00,,---,0.00,VWS V14.00,2013-06-16 01:52:00,
2013-06-15 21:57:00,69.5,60.9,29.91,South,188,2.0,6.0,74,0.00,,---,0.00,VWS V14.00,2013-06-16 01:57:00,
2013-06-15 22:00:00,69.4,60.8,29.91,SSE,148,5.0,6.0,74,0.00,,---,0.00,VWS V14.00,2013-06-16 02:00:00,
2013-06-15 22:02:00,69.3,60.7,29.91,SSE,148,5.0,6.0,74,0.00,,---,0.00,VWS V14.00,2013-06-16 02:02:00,
2013-06-15 22:07:00,69.2,61.0,29.91,South,178,0.0,6.0,75,0.00,,---,0.00,VWS V14.00,2013-06-16 02:07:00,
2013-06-15 22:12:00,69.1,60.8,29.91,SSE,167,2.0,6.0,75,0.00,,---,0.00,VWS V14.00,2013-06-16 02:12:00,
2013-06-15 22:17:00,68.9,61.0,29.91,SSE,155,1.0,6.0,76,0.00,,---,0.00,VWS V14.00,2013-06-16 02:17:00,
2013-06-15 22:22:00,68.8,60.9,29.91,South,170,0.0,7.0,76,0.00,,---,0.00,VWS V14.00,2013-06-16 02:22:00,
2013-06-15 22:27:00,68.7,60.8,29.91,SSW,199,2.0,7.0,76,0.00,,---,0.00,VWS V14.00,2013-06-16 02:27:00,
2013-06-15 22:30:00,68.7,60.8,29.91,SSW,199,3.0,7.0,76,0.00,,---,0.00,VWS V14.00,2013-06-16 02:30:00,
2013-06-15 22:32:00,68.5,61.0,29.91,SSW,201,0.0,6.0,77,0.00,,---,0.00,VWS V14.00,2013-06-16 02:32:00,
2013-06-15 22:37:00,68.4,60.9,29.91,South,188,4.0,6.0,77,0.00,,---,0.00,VWS V14.00,2013-06-16 02:37:00,
2013-06-15 22:42:00,68.3,61.2,29.91,South,184,2.0,6.0,78,0.00,,---,0.00,VWS V14.00,2013-06-16 02:42:00,
2013-06-15 22:47:00,68.2,61.1,29.91,SE,137,1.0,6.0,78,0.00,,---,0.00,VWS V14.00,2013-06-16 02:47:00,
2013-06-15 22:52:00,68.1,61.0,29.91,SE,138,6.0,6.0,78,0.00,,---,0.00,VWS V14.00,2013-06-16 02:52:00,
2013-06-15 22:57:00,67.9,61.2,29.91,SE,140,0.0,6.0,79,0.00,,---,0.00,VWS V14.00,2013-06-16 02:57:00,
2013-06-15 23:00:00,67.9,61.2,29.91,SE,140,0.0,6.0,79,0.00,,---,0.00,VWS V14.00,2013-06-16 03:00:00,
2013-06-15 23:02:00,67.8,61.1,29.91,South,169,2.0,6.0,79,0.00,,---,0.00,VWS V14.00,2013-06-16 03:02:00,
2013-06-15 23:07:00,67.7,61.3,29.91,South,191,0.0,7.0,80,0.00,,---,0.00,VWS V14.00,2013-06-16 03:07:00,
2013-06-15 23:12:00,67.6,61.2,29.90,SSE,159,2.0,7.0,80,0.00,,---,0.00,VWS V14.00,2013-06-16 03:12:00,
2013-06-15 23:17:00,67.5,61.1,29.90,South,180,4.0,7.0,80,0.00,,---,0.00,VWS V14.00,2013-06-16 03:17:00,
2013-06-15 23:22:00,67.5,61.1,29.90,SSW,195,2.0,7.0,80,0.00,,---,0.00,VWS V14.00,2013-06-16 03:22:00,
2013-06-15 23:27:00,67.5,61.1,29.91,SSW,200,2.0,7.0,80,0.00,,---,0.00,VWS V14.00,2013-06-16 03:27:00,
2013-06-15 23:30:00,67.5,61.1,29.90,SSW,200,2.0,7.0,80,0.00,,---,0.00,VWS V14.00,2013-06-16 03:30:00,
2013-06-15 23:32:00,67.4,61.4,29.91,SSW,195,3.0,7.0,81,0.00,,---,0.00,VWS V14.00,2013-06-16 03:32:00,
2013-06-15 23:37:00,67.4,61.4,29.91,South,182,3.0,7.0,81,0.00,,---,0.00,VWS V14.00,2013-06-16 03:37:00,
2013-06-15 23:42:00,67.4,61.4,29.91,SW,221,4.0,7.0,81,0.00,,---,0.00,VWS V14.00,2013-06-16 03:42:00,
2013-06-15 23:47:00,67.4,61.4,29.91,SSW,198,5.0,7.0,81,0.00,,---,0.00,VWS V14.00,2013-06-16 03:47:00,
2013-06-15 23:52:00,67.4,61.4,29.91,SSW,198,4.0,8.0,81,0.00,,---,0.00,VWS V14.00,2013-06-16 03:52:00,
2013-06-15 23:57:00,67.3,61.3,29.90,SSW,200,2.0,8.0,81,0.00,,---,0.00,VWS V14.00,2013-06-16 03:57:00,